| time (UTC) | temp F | wind direction | speed MPH | gust MPH | rain 1hr in | rain 24hr in | rain mn in | humidity % | barometer mb |
| 20260505024856 | 59 | 188 | 3.0 | 10.0 | 0.00 | 0.00 | 0.00 | 72 | 1003.1 |
| 20260505024406 | 59 | 185 | 2.0 | 12.0 | 0.00 | 0.00 | 0.00 | 72 | 1003.1 |
| 20260505023903 | 59 | 214 | 4.0 | 12.0 | 0.00 | 0.00 | 0.00 | 72 | 1003.1 |
| 20260505023336 | 60 | 138 | 2.0 | 6.0 | 0.00 | 0.00 | 0.00 | 71 | 1003.0 |
| 20260505022848 | 60 | 166 | 3.0 | 8.0 | 0.00 | 0.00 | 0.00 | 70 | 1003.1 |
| 20260505022343 | 60 | 192 | 1.0 | 10.0 | 0.00 | 0.00 | 0.00 | 69 | 1003.2 |
| 20260505021839 | 60 | 119 | 4.0 | 10.0 | 0.00 | 0.00 | 0.00 | 67 | 1003.3 |
| 20260505021345 | 61 | 253 | 4.0 | 9.0 | 0.00 | 0.00 | 0.00 | 67 | 1003.2 |
| 20260505020842 | 61 | 254 | 2.0 | 7.0 | 0.00 | 0.00 | 0.00 | 65 | 1003.2 |
| 20260505020337 | 61 | 255 | 2.0 | 15.0 | 0.00 | 0.00 | 0.00 | 65 | 1003.2 |
| 20260505015847 | 62 | 323 | 4.0 | 15.0 | 0.00 | 0.00 | 0.00 | 63 | 1003.2 |
| 20260505015349 | 63 | 238 | 6.0 | 14.0 | 0.00 | 0.00 | 0.00 | 59 | 1003.1 |
| 20260505014837 | 62 | 234 | 5.0 | 10.0 | 0.00 | 0.00 | 0.00 | 55 | 1003.3 |
| 20260505014343 | 62 | 250 | 4.0 | 10.0 | 0.00 | 0.00 | 0.00 | 55 | 1002.9 |
| 20260505013842 | 61 | 263 | 2.0 | 5.0 | 0.00 | 0.00 | 0.00 | 54 | 1002.7 |
| 20260505013347 | 61 | 209 | 2.0 | 5.0 | 0.00 | 0.00 | 0.00 | 55 | 1002.6 |
| 20260505012845 | 62 | 182 | 1.0 | 6.0 | 0.00 | 0.00 | 0.00 | 53 | 1002.6 |
| 20260505012349 | 62 | 113 | 2.0 | 9.0 | 0.00 | 0.00 | 0.00 | 53 | 1002.7 |
| 20260505011839 | 62 | 148 | 3.0 | 5.0 | 0.00 | 0.00 | 0.00 | 53 | 1002.7 |
| 20260505011344 | 62 | 247 | 1.0 | 4.0 | 0.00 | 0.00 | 0.00 | 53 | 1002.9 |
| 20260505010846 | 62 | 254 | 1.0 | 5.0 | 0.00 | 0.00 | 0.00 | 53 | 1002.9 |
| 20260505010342 | 62 | 246 | 2.0 | 5.0 | 0.00 | 0.00 | 0.00 | 53 | 1002.9 |
| 20260505005845 | 62 | 221 | 2.0 | 8.0 | 0.00 | 0.00 | 0.00 | 52 | 1002.9 |
| 20260505005349 | 62 | 248 | 3.0 | 8.0 | 0.00 | 0.00 | 0.00 | 52 | 1002.8 |
| 20260505004833 | 62 | 241 | 2.0 | 6.0 | 0.00 | 0.00 | 0.00 | 51 | 1002.7 |
| 20260505004344 | 63 | 315 | 1.0 | 7.0 | 0.00 | 0.00 | 0.00 | 52 | 1002.7 |
| 20260505003837 | 63 | 254 | 2.0 | 9.0 | 0.00 | 0.00 | 0.00 | 51 | 1002.8 |
| 20260505003334 | 63 | 227 | 3.0 | 9.0 | 0.00 | 0.00 | 0.00 | 51 | 1002.7 |
| 20260505002858 | 63 | 214 | 3.0 | 7.0 | 0.00 | 0.00 | 0.00 | 50 | 1002.7 |
| 20260505002334 | 63 | 273 | 1.0 | 6.0 | 0.00 | 0.00 | 0.00 | 50 | 1002.6 |
| 20260505001835 | 63 | 246 | 2.0 | 6.0 | 0.00 | 0.00 | 0.00 | 50 | 1002.7 |
| 20260505001347 | 63 | 289 | 1.0 | 10.0 | 0.00 | 0.00 | 0.00 | 50 | 1002.8 |
| 20260505000844 | 64 | 219 | 4.0 | 10.0 | 0.00 | 0.00 | 0.00 | 48 | 1002.8 |
| 20260505000343 | 64 | 207 | 2.0 | 9.0 | 0.00 | 0.00 | 0.00 | 48 | 1002.9 |
| 20260504235851 | 65 | 225 | 1.0 | 10.0 | 0.00 | 0.00 | 0.00 | 46 | 1002.8 |
| 20260504235353 | 65 | 318 | 2.0 | 10.0 | 0.00 | 0.00 | 0.00 | 45 | 1002.8 |
| 20260504234907 | 65 | 177 | 2.0 | 13.0 | 0.00 | 0.00 | 0.00 | 45 | 1002.8 |
| 20260504234338 | 66 | 244 | 5.0 | 13.0 | 0.00 | 0.00 | 0.00 | 43 | 1002.8 |
| 20260504233837 | 66 | 222 | 4.0 | 13.0 | 0.00 | 0.00 | 0.00 | 43 | 1002.7 |
| 20260504233356 | 66 | 224 | 4.0 | 16.0 | 0.00 | 0.00 | 0.00 | 43 | 1002.8 |
| 20260504232843 | 66 | 230 | 4.0 | 12.0 | 0.00 | 0.00 | 0.00 | 42 | 1002.7 |
| 20260504232344 | 66 | 207 | 4.0 | 10.0 | 0.00 | 0.00 | 0.00 | 41 | 1002.7 |
| 20260504231905 | 66 | 233 | 2.0 | 10.0 | 0.00 | 0.00 | 0.00 | 42 | 1002.8 |
| 20260504231338 | 67 | 211 | 6.0 | 15.0 | 0.00 | 0.00 | 0.00 | 40 | 1002.7 |
| 20260504230844 | 67 | 274 | 5.0 | 15.0 | 0.00 | 0.00 | 0.00 | 42 | 1002.7 |
| 20260504230346 | 67 | 227 | 6.0 | 15.0 | 0.00 | 0.00 | 0.00 | 39 | 1002.7 |
| 20260504225848 | 67 | 286 | 5.0 | 14.0 | 0.00 | 0.00 | 0.00 | 41 | 1002.8 |
| 20260504225348 | 68 | 242 | 6.0 | 12.0 | 0.00 | 0.00 | 0.00 | 37 | 1002.7 |
| 20260504224909 | 68 | 205 | 3.0 | 9.0 | 0.00 | 0.00 | 0.00 | 39 | 1002.8 |
| 20260504224340 | 68 | 161 | 3.0 | 14.0 | 0.00 | 0.00 | 0.00 | 39 | 1002.8 |
| 20260504223834 | 68 | 290 | 5.0 | 14.0 | 0.00 | 0.00 | 0.00 | 39 | 1002.8 |
| 20260504223358 | 68 | 236 | 6.0 | 16.0 | 0.00 | 0.00 | 0.00 | 36 | 1002.8 |
| 20260504222915 | 68 | 228 | 4.0 | 16.0 | 0.00 | 0.00 | 0.00 | 38 | 1002.8 |
| 20260504222346 | 69 | 137 | 6.0 | 16.0 | 0.00 | 0.00 | 0.00 | 37 | 1002.6 |
| 20260504221843 | 69 | 281 | 4.0 | 16.0 | 0.00 | 0.00 | 0.00 | 37 | 1002.7 |
| 20260504221407 | 69 | 224 | 7.0 | 14.0 | 0.00 | 0.00 | 0.00 | 39 | 1002.7 |
| 20260504220912 | 69 | 219 | 8.0 | 15.0 | 0.00 | 0.00 | 0.00 | 39 | 1002.7 |
| 20260504220345 | 69 | 247 | 8.0 | 12.0 | 0.00 | 0.00 | 0.00 | 40 | 1002.8 |
| 20260504215847 | 69 | 225 | 5.0 | 13.0 | 0.00 | 0.00 | 0.00 | 41 | 1002.8 |
| 20260504215342 | 69 | 46 | 4.0 | 12.0 | 0.00 | 0.00 | 0.00 | 40 | 1002.8 |
| 20260504214903 | 69 | 209 | 1.0 | 12.0 | 0.00 | 0.00 | 0.00 | 41 | 1002.8 |
| 20260504214340 | 69 | 207 | 6.0 | 12.0 | 0.00 | 0.00 | 0.00 | 42 | 1002.8 |
| 20260504213849 | 69 | 217 | 4.0 | 10.0 | 0.00 | 0.00 | 0.00 | 43 | 1002.7 |
| 20260504213410 | 70 | 309 | 4.0 | 10.0 | 0.00 | 0.00 | 0.00 | 40 | 1002.5 |
| 20260504212847 | 70 | 218 | 3.0 | 16.0 | 0.00 | 0.00 | 0.00 | 40 | 1002.5 |
| 20260504212346 | 70 | 247 | 4.0 | 16.0 | 0.00 | 0.00 | 0.00 | 38 | 1002.6 |
| 20260504211859 | 69 | 230 | 4.0 | 12.0 | 0.00 | 0.00 | 0.00 | 41 | 1002.7 |
| 20260504211339 | 70 | 176 | 2.0 | 7.0 | 0.00 | 0.00 | 0.00 | 39 | 1002.7 |
| 20260504210919 | 71 | 222 | 4.0 | 8.0 | 0.00 | 0.00 | 0.00 | 39 | 1002.6 |
| 20260504210407 | 71 | 203 | 4.0 | 11.0 | 0.00 | 0.00 | 0.00 | 38 | 1002.5 |
| 20260504205856 | 72 | 234 | 5.0 | 11.0 | 0.00 | 0.00 | 0.00 | 36 | 1002.6 |
| 20260504205352 | 71 | 331 | 5.0 | 10.0 | 0.00 | 0.00 | 0.00 | 37 | 1002.5 |
| 20260504204915 | 71 | 169 | 4.0 | 11.0 | 0.00 | 0.00 | 0.00 | 39 | 1002.5 |
| 20260504204347 | 71 | 220 | 4.0 | 10.0 | 0.00 | 0.00 | 0.00 | 39 | 1002.6 |
| 20260504203848 | 70 | 265 | 6.0 | 12.0 | 0.00 | 0.00 | 0.00 | 38 | 1002.8 |
| 20260504203359 | 70 | 242 | 4.0 | 13.0 | 0.00 | 0.00 | 0.00 | 41 | 1002.8 |
| 20260504202910 | 70 | 215 | 7.0 | 13.0 | 0.00 | 0.00 | 0.00 | 38 | 1002.8 |
| 20260504202336 | 70 | 309 | 5.0 | 16.0 | 0.00 | 0.00 | 0.00 | 39 | 1003.0 |
| 20260504201850 | 69 | 209 | 6.0 | 11.0 | 0.00 | 0.00 | 0.00 | 41 | 1003.0 |
| 20260504201408 | 71 | 290 | 4.0 | 13.0 | 0.00 | 0.00 | 0.00 | 38 | 1003.0 |
| 20260504200838 | 71 | 250 | 6.0 | 13.0 | 0.00 | 0.00 | 0.00 | 40 | 1003.1 |
| 20260504200336 | 70 | 137 | 4.0 | 13.0 | 0.00 | 0.00 | 0.00 | 44 | 1003.2 |
| 20260504195834 | 70 | 234 | 4.0 | 16.0 | 0.00 | 0.00 | 0.00 | 43 | 1003.3 |
| 20260504195413 | 71 | 309 | 3.0 | 16.0 | 0.00 | 0.00 | 0.00 | 41 | 1003.2 |
| 20260504194834 | 71 | 240 | 4.0 | 8.0 | 0.00 | 0.00 | 0.00 | 40 | 1003.4 |
| 20260504194338 | 71 | 171 | 2.0 | 18.0 | 0.00 | 0.00 | 0.00 | 38 | 1003.5 |
| 20260504193844 | 71 | 237 | 4.0 | 18.0 | 0.00 | 0.00 | 0.00 | 39 | 1003.5 |
| 20260504193335 | 72 | 257 | 7.0 | 11.0 | 0.00 | 0.00 | 0.00 | 39 | 1003.6 |
| 20260504192853 | 70 | 247 | 4.0 | 15.0 | 0.00 | 0.00 | 0.00 | 42 | 1003.5 |
| 20260504192352 | 70 | 226 | 6.0 | 15.0 | 0.00 | 0.00 | 0.00 | 40 | 1003.9 |
| 20260504191857 | 71 | 235 | 5.0 | 13.0 | 0.00 | 0.00 | 0.00 | 41 | 1003.8 |
| 20260504191352 | 70 | 192 | 3.0 | 9.0 | 0.00 | 0.00 | 0.00 | 46 | 1003.8 |
| 20260504190854 | 69 | 246 | 4.0 | 14.0 | 0.00 | 0.00 | 0.00 | 49 | 1003.9 |
| 20260504190351 | 70 | 243 | 6.0 | 14.0 | 0.00 | 0.00 | 0.00 | 42 | 1004.0 |
| 20260504185850 | 70 | 280 | 4.0 | 15.0 | 0.00 | 0.00 | 0.00 | 44 | 1004.1 |
| 20260504185347 | 71 | 291 | 6.0 | 16.0 | 0.00 | 0.00 | 0.00 | 43 | 1004.0 |
| 20260504184854 | 71 | 245 | 11.0 | 16.0 | 0.00 | 0.00 | 0.00 | 41 | 1004.1 |
| 20260504184354 | 71 | 191 | 5.0 | 14.0 | 0.00 | 0.00 | 0.00 | 46 | 1004.0 |
| 20260504183852 | 70 | 215 | 7.0 | 14.0 | 0.00 | 0.00 | 0.00 | 43 | 1004.1 |
| 20260504183343 | 70 | 180 | 8.0 | 14.0 | 0.00 | 0.00 | 0.00 | 43 | 1004.0 |
| 20260504182837 | 70 | 257 | 6.0 | 12.0 | 0.00 | 0.00 | 0.00 | 42 | 1004.0 |
| 20260504182353 | 70 | 181 | 3.0 | 10.0 | 0.00 | 0.00 | 0.00 | 46 | 1004.1 |
| 20260504181851 | 69 | 195 | 5.0 | 17.0 | 0.00 | 0.00 | 0.00 | 42 | 1004.3 |
| 20260504181408 | 70 | 245 | 7.0 | 17.0 | 0.00 | 0.00 | 0.00 | 43 | 1004.2 |
| 20260504180836 | 70 | 254 | 5.0 | 17.0 | 0.00 | 0.00 | 0.00 | 45 | 1004.3 |
| 20260504180356 | 69 | 244 | 6.0 | 17.0 | 0.00 | 0.00 | 0.00 | 46 | 1004.4 |
| 20260504175847 | 69 | 215 | 8.0 | 20.0 | 0.00 | 0.00 | 0.00 | 43 | 1004.6 |
| 20260504175344 | 69 | 265 | 6.0 | 18.0 | 0.00 | 0.00 | 0.00 | 51 | 1004.5 |
| 20260504174850 | 70 | 282 | 8.0 | 18.0 | 0.00 | 0.00 | 0.00 | 45 | 1004.6 |
| 20260504174411 | 70 | 239 | 6.0 | 11.0 | 0.00 | 0.00 | 0.00 | 47 | 1004.7 |
| 20260504173853 | 69 | 225 | 5.0 | 17.0 | 0.00 | 0.00 | 0.00 | 45 | 1004.7 |
| 20260504173335 | 68 | 5 | 8.0 | 17.0 | 0.00 | 0.00 | 0.00 | 47 | 1004.7 |
| 20260504172834 | 68 | 170 | 6.0 | 12.0 | 0.00 | 0.00 | 0.00 | 50 | 1004.9 |
| 20260504172355 | 68 | 273 | 4.0 | 20.0 | 0.00 | 0.00 | 0.00 | 51 | 1005.0 |
| 20260504171914 | 67 | 286 | 7.0 | 20.0 | 0.00 | 0.00 | 0.00 | 48 | 1004.9 |
| 20260504171346 | 68 | 235 | 7.0 | 17.0 | 0.00 | 0.00 | 0.00 | 49 | 1004.9 |
| 20260504170857 | 68 | 259 | 8.0 | 17.0 | 0.00 | 0.00 | 0.00 | 49 | 1005.0 |
| 20260504170339 | 67 | 196 | 7.0 | 16.0 | 0.00 | 0.00 | 0.00 | 52 | 1005.0 |
| 20260504160334 | 64 | 277 | 6.0 | 12.0 | 0.00 | 0.00 | 0.00 | 52 | 1005.5 |
| 20260504150855 | 61 | 186 | 8.0 | 15.0 | 0.00 | 0.00 | 0.00 | 53 | 1005.9 |
| 20260504150344 | 61 | 276 | 6.0 | 13.0 | 0.00 | 0.00 | 0.00 | 54 | 1005.9 |
| 20260504140859 | 59 | 205 | 2.0 | 11.0 | 0.00 | 0.00 | 0.00 | 56 | 1005.9 |
| 20260504140351 | 59 | 246 | 7.0 | 12.0 | 0.00 | 0.00 | 0.00 | 60 | 1005.8 |
| 20260504130337 | 53 | 119 | 4.0 | 7.0 | 0.00 | 0.00 | 0.00 | 64 | 1006.3 |
| 20260504110348 | 48 | 148 | 5.0 | 13.0 | 0.00 | 0.02 | 0.00 | 66 | 1006.2 |
| 20260504100401 | 48 | 247 | 2.0 | 13.0 | 0.00 | 0.02 | 0.00 | 65 | 1005.8 |
| 20260504081851 | 45 | 218 | 2.0 | 12.0 | 0.00 | 0.02 | 0.00 | 69 | 1006.6 |
| 20260504070344 | 45 | 247 | 2.0 | 4.0 | 0.00 | 0.02 | 0.00 | 69 | 1007.3 |
| 20260504050332 | 46 | 267 | 3.0 | 8.0 | 0.00 | 0.02 | 0.00 | 64 | 1008.1 |
| 20260504045839 | 46 | 277 | 3.0 | 10.0 | 0.00 | 0.02 | 0.00 | 64 | 1008.1 |
| 20260504045343 | 46 | 222 | 4.0 | 10.0 | 0.00 | 0.02 | 0.00 | 65 | 1008.0 |
| 20260504044833 | 46 | 166 | 2.0 | 10.0 | 0.00 | 0.02 | 0.00 | 66 | 1008.1 |
| 20260504044338 | 46 | 217 | 3.0 | 10.0 | 0.00 | 0.02 | 0.00 | 66 | 1008.1 |
| 20260504043841 | 46 | 197 | 2.0 | 9.0 | 0.00 | 0.02 | 0.00 | 66 | 1008.1 |
| 20260504043343 | 46 | 228 | 4.0 | 12.0 | 0.00 | 0.02 | 0.00 | 65 | 1008.1 |
| 20260504042837 | 46 | 224 | 3.0 | 9.0 | 0.00 | 0.02 | 0.00 | 67 | 1008.1 |
| 20260504042334 | 46 | 242 | 3.0 | 8.0 | 0.00 | 0.02 | 0.00 | 67 | 1008.1 |
| 20260504041847 | 46 | 190 | 4.0 | 9.0 | 0.00 | 0.02 | 0.00 | 66 | 1008.1 |
| 20260504041348 | 46 | 227 | 3.0 | 9.0 | 0.00 | 0.02 | 0.00 | 66 | 1008.1 |
| 20260504040845 | 46 | 275 | 2.0 | 7.0 | 0.00 | 0.02 | 0.00 | 66 | 1008.0 |
| 20260504040341 | 46 | 219 | 2.0 | 7.0 | 0.00 | 0.02 | 0.00 | 66 | 1008.0 |
| 20260504035841 | 46 | 227 | 3.0 | 7.0 | 0.00 | 0.02 | 0.02 | 67 | 1008.2 |
| 20260504035349 | 46 | 234 | 3.0 | 11.0 | 0.00 | 0.02 | 0.02 | 67 | 1008.3 |
| 20260504034847 | 46 | 265 | 2.0 | 11.0 | 0.00 | 0.02 | 0.02 | 67 | 1008.0 |
| 20260504034332 | 46 | 183 | 1.0 | 10.0 | 0.00 | 0.02 | 0.02 | 67 | 1008.1 |
| 20260504033838 | 47 | 248 | 1.0 | 8.0 | 0.00 | 0.02 | 0.02 | 65 | 1008.1 |
| 20260504033337 | 47 | 247 | 3.0 | 6.0 | 0.00 | 0.02 | 0.02 | 65 | 1008.3 |
| 20260504032901 | 47 | 182 | 2.0 | 7.0 | 0.00 | 0.02 | 0.02 | 65 | 1008.3 |
| 20260504032343 | 48 | 226 | 3.0 | 7.0 | 0.00 | 0.02 | 0.02 | 64 | 1008.4 |
| 20260504031831 | 48 | 242 | 3.0 | 12.0 | 0.00 | 0.02 | 0.02 | 64 | 1008.4 |
| 20260504031347 | 48 | 231 | 3.0 | 12.0 | 0.00 | 0.02 | 0.02 | 62 | 1008.3 |
| 20260504030848 | 48 | 236 | 3.0 | 10.0 | 0.00 | 0.02 | 0.02 | 62 | 1008.4 |
| 20260504030331 | 48 | 226 | 4.0 | 10.0 | 0.00 | 0.02 | 0.02 | 61 | 1008.4 |
| 20260504025839 | 49 | 262 | 4.0 | 9.0 | 0.00 | 0.02 | 0.02 | 60 | 1008.4 |
| 20260504025404 | 49 | 175 | 4.0 | 11.0 | 0.00 | 0.02 | 0.02 | 61 | 1008.5 |